DMSP 5D-2 F11 DEB, 28309

Orbit data source: Space-Track

DMSP 5D-2 F11 DEB, 28309 is space debris in SSO originally from a launch on Thu, 28 Nov 1991 UTC launched from the Air Force Western Test Range (AFWTR). Debris objects in space refer to the collection of defunct objects orbiting the Earth. Examples of debris include non-operational satellites, rocket bodies, and fragments generated from explosions, collisions, or faulty payload assembly.

Loading next visibility...
Identifier
28309, 1991-082W
Orbit
SSO
Country
Flag of USUS
Related business
Manufacturer
Unknown
Mission
Spacecraft
Bus & Motor
Unknown
Mass
Unknown
Launch date (UTC)
1991-11-28 (35 years ago)
Launch vehicle
Unknown
Launch site
Air Force Western Test Range (AFWTR)
Object type
Payload
Rocket body
Debris
Shape & HBR
Unknown shape, 0.2 m
Radar Cross Section
Medium (>0.1 m² and <1 m²)

Expand to show TLE details & history
Last TLE update: 1 day ago

TLE from 1 day ago
0 DMSP 5D-2 F11 DEB
1 28309U 91082W   26207.86597284  .00000114  00000-0  70457-4 0  9991
2 28309  98.7051 229.6660 0015685 131.8104 352.4392 14.22686239155189
Epoch: 2026-07-26T20:47Z
TLE epoch observation values (Epoch: 2026-07-26T20:47:00.053Z)
Latitude
54.91638°
Longitude
165.88114°
Altitude
814.148 km
Speed
7.457 km/s
True Right ascension
04h 08m 45s
True Declination
54° 45' 21"
Sunlit
Object was in daylight at epoch
Visualization orbit readout
Latitude
Unknown
Longitude
Unknown
Altitude
Unknown
Speed
Unknown
Apparent Right ascension
Unknown
Apparent Declination
Unknown
Sunlit
N/A
Visualization observer readout
Local Sidereal Time
15:14:15
Azimuth
Unknown
Elevation
Unknown
Doppler factor
Unknown
Orbital elements
Apogee altitude
824.717 km
Perigee altitude
802.157 km
Semi-major axis
7,191.574 km
Eccentricity
0.00157
Inclination
98.7051°
RAAN
229.666°
Arg. of periapsis
131.8104°
True anomaly
352.4155°
Mean anomaly
352.4392°
Eccentric anomaly
352.42736°
Mean motion
3.55883 °/min
Orbital period
101.16 mins
BSTAR
0.000070457
Loading maneuver chart data...
Computing Atmospheric mass density...

Documentation

Showing up to 5 results
|